{"data":{"norad_id":52361,"intl_designator":"2022-045AG","name":"STARLINK-3728","alt_names":[],"object_type":"PAYLOAD","status":"ACTIVE","operator":null,"country":"US","launch_date":"2022-04-29","launch_site_code":"AFETR","launch_vehicle":null,"mission":null,"orbit_class":"UNKNOWN","rcs_meters":null,"size_class":null,"mass_kg":null,"dimensions":null,"purposes":["comms"],"wikipedia_slug":null,"has_3d_model":false,"image_url":null,"decayed_at":null,"tle_current":{"epoch":"2026-05-25T04:16:02.834112Z","epoch_age_seconds":53715,"freshness":"FRESH","line1":"1 52361U 22045AG  26145.17781058  .00000014  00000+0  18945-4 0  9990","line2":"2 52361  53.2132 215.7550 0001169  86.1141 273.9985 15.08836566227336","mean_motion":15.08836566,"eccentricity":0.0001169,"inclination_deg":53.2132,"raan_deg":215.755,"arg_perigee_deg":86.1141,"mean_anomaly_deg":273.9985,"bstar":1.8945e-5,"rev_number":22733,"period_min":95.437771886554,"perigee_km":538.94518390372,"apogee_km":540.56258679272,"semimajor_km":6917.8908853482,"source":"CELESTRAK","updated_at":"2026-05-25T13:38:17.118494Z"}}}